Location: St. Louis
(38.6270°N, 90.1994°W)
Time: 09:42:00
(UTC-06:00)

Vanguard 2 Rocket - Pass Details

Date: 30 November 2021
Orbit: 553 x 3325 km, 32.9° (Epoch: 23 January)

Event Time Altitude Azimuth Distance (km) Brightness Sun altitude
Rises 17:29:53 0° 216° (SW) 3,236 10.8 -9.7°
Reaches altitude 10° 17:32:14 10° 203° (SSW) 2,541 9.8 -10.2°
Maximum altitude 17:37:25 29° 145° (SE) 2,035 8.5 -11.1°
Enters shadow 17:44:39 12° 93° (E) 3,794 9.5 -12.5°
Drops below altitude 10° 17:45:25 10° 91° (E) 4,033 - -12.6°
Sets 17:50:15 0° 82° (E) 5,551 - -13.5°
